Вернуться в каталог

THORAD AGENA D DEB

АктивенPO
NORAD 4918·DEBRIS·🇺🇸 United States

Запущен Apr 8, 1970 с Vandenberg Space Force Base

Loading…

Ближайшие Пролёты (ближайшие 24 часа)

TLE

СвежийSource: Space-Track

Эпоха: Sep 13, 2026, 19:54 UTC

1 04918U 70025FQ  26256.82920974  .00000346  00000-0  77233-3 0  9996
2 04918  99.4939  31.4635 0162509 188.9627 170.8586 13.29662083724416

Отслеживайте THORAD AGENA D DEB в реальном времени с AllMySat

Download on the App Store